Temperature
22 22 21 21 26 29 27 28 28 28 28 27 26 26 27 27 26 24 20 20 20 19 19 20 19 19 19 19 19 19 19 19 19 19 19 19 19 19 19 19 19 19 19 19 19 19 19 19 19
22 22 22 25 29 28 27 28 28 28 27 26 26 26 26 25 22 20 19 19 19 19 19 19 20 19 19 19 19 19 19 19 19 19 19 19 19 19 18 18 18 18 19 19 19 19 19 19 19
23 22 24 29 28 28 27 28 28 27 26 26 26 25 25 24 21 20 19 19 19 19 19 19 20 19 19 19 19 19 19 19 19 19 19 19 19 19 18 18 18 18 18 18 18 18 18 18 18
22 23 27 29 28 28 28 29 28 28 27 26 26 26 24 21 21 20 20 20 19 19 19 19 20 19 19 19 19 19 19 19 19 19 19 19 19 19 18 18 18 18 18 18 18 18 18 18 18
23 26 29 28 28 28 28 28 28 28 27 26 26 26 23 21 20 20 20 20 20 19 19 19 20 19 19 19 19 19 19 19 19 19 19 19 19 19 18 18 18 18 18 18 18 18 18 18 18
25 28 28 27 27 28 28 27 28 28 27 26 26 25 23 21 20 20 20 20 20 19 19 19 20 19 19 19 19 19 19 19 19 19 19 19 19 19 19 18 18 18 18 18 18 18 18 18 18
27 28 28 27 27 27 27 27 27 27 26 25 25 25 23 21 20 20 19 19 19 19 19 19 19 19 19 19 19 19 19 19 19 19 19 19 19 19 19 18 18 18 18 18 18 18 18 18 18
26 28 27 27 26 26 26 26 25 25 24 23 23 24 23 21 20 19 19 19 19 19 19 19 19 19 18 18 19 19 19 19 19 19 19 19 18 18 18 18 18 18 18 18 18 18 18 18 18
26 28 27 26 26 25 25 25 24 23 23 22 21 21 20 20 19 19 19 19 19 19 19 19 19 19 18 18 18 18 19 19 18 18 18 18 18 17 18 17 18 18 18 18 18 18 18 18 18
28 28 26 26 26 24 22 22 22 23 21 20 20 19 19 19 19 19 19 19 19 19 19 19 19 19 18 18 18 18 18 18 18 18 18 18 17 17 17 17 18 18 18 18 18 18 18 18 17
27 26 26 25 24 23 22 20 19 21 19 18 18 18 18 18 18 18 18 18 18 18 18 19 19 19 18 18 18 18 18 18 18 18 17 18 17 17 17 17 17 17 18 17 17 18 17 17 17
26 24 24 24 23 22 22 20 18 17 16 16 16 17 17 17 17 17 17 17 18 18 18 18 18 18 18 18 18 18 18 18 18 18 18 18 18 17 17 17 17 17 17 17 17 17 17 18 18
26 23 22 21 20 20 19 19 18 16 16 16 16 16 16 16 16 16 16 17 17 17 18 18 18 18 18 18 18 18 18 18 18 18 18 17 17 17 17 17 17 17 17 17 17 17 18 18 18
25 23 22 21 21 20 19 18 18 16 16 16 16 16 15 15 15 16 16 16 17 17 17 17 18 18 18 18 18 18 18 18 18 18 18 18 17 17 17 17 17 17 17 17 17 18 18 18 18
24 24 23 22 22 21 21 19 17 15 16 16 16 15 15 15 15 15 15 16 16 16 17 17 17 17 18 18 18 18 18 18 18 18 18 18 17 17 17 17 17 17 17 17 17 18 18 18 18
26 26 24 21 21 21 22 18 16 16 16 16 16 15 15 15 15 15 15 15 15 16 16 17 17 17 17 18 18 18 18 18 18 18 18 18 18 17 17 17 17 17 17 17 17 17 17 18 18
26 26 24 22 21 21 21 17 16 16 16 16 16 16 16 16 15 15 14 15 15 15 15 16 16 17 17 17 18 18 18 18 18 18 18 18 18 17 17 17 17 17 17 17 17 17 17 18 18
26 26 24 22 20 20 19 17 17 16 16 16 16 16 16 15 15 14 14 14 14 14 15 15 15 16 16 17 17 17 17 18 17 17 17 18 18 17 17 17 17 17 17 17 17 17 17 17 17
25 25 23 21 19 19 18 17 17 16 16 16 16 16 16 15 15 14 14 14 14 14 14 14 15 15 15 16 16 17 17 17 17 17 17 17 17 17 17 17 17 17 17 17 17 17 17 17 17
25 24 22 20 19 19 18 18 18 17 16 16 15 15 15 15 14 14 14 13 13 13 13 13 14 14 15 15 16 16 16 17 17 17 17 17 17 17 17 17 17 17 17 17 16 17 17 17 17
23 23 22 20 19 19 19 18 18 18 17 16 15 15 15 14 14 13 13 13 13 13 12 13 13 14 14 14 15 15 15 16 16 16 16 17 17 17 17 17 17 17 16 16 16 16 16 16 16
22 21 21 20 20 20 19 20 18 18 18 17 16 15 14 14 13 13 13 12 12 12 12 12 13 13 13 14 14 14 15 15 15 16 16 16 16 17 17 17 17 16 16 16 16 16 16 16 16
21 20 20 20 21 20 20 20 19 18 17 17 16 15 14 14 13 12 12 12 12 12 12 12 12 13 13 13 13 14 14 14 15 15 16 16 16 16 16 16 16 16 16 16 16 16 16 16 16
20 20 20 20 21 20 19 19 18 17 16 16 15 15 14 13 13 12 12 12 12 12 12 12 12 12 13 13 13 13 14 14 14 14 15 15 15 16 16 16 16 16 16 16 16 16 16 16 16
21 21 22 21 21 20 18 18 17 16 16 15 15 14 14 13 13 12 12 11 11 12 12 12 12 12 13 13 13 13 13 13 14 14 14 15 15 15 15 15 15 15 16 16 15 15 15 15 16
20 21 21 21 21 19 18 17 17 16 16 15 15 14 13 13 12 12 11 11 11 11 11 12 12 12 12 12 13 13 13 13 13 14 14 14 14 15 15 15 15 15 15 15 15 15 15 15 15
20 20 20 21 20 20 19 17 17 17 16 15 15 14 14 13 12 12 11 11 11 11 11 11 12 12 12 12 12 12 13 13 13 13 14 14 14 14 14 15 15 15 15 15 15 15 15 15 15
19 19 20 20 20 20 18 18 17 16 16 16 15 14 14 13 12 12 11 11 11 11 11 11 11 12 12 12 12 12 12 13 13 13 13 14 14 14 14 14 14 14 14 14 15 15 14 14 14
19 19 19 19 19 19 18 17 17 16 16 15 15 14 14 13 12 12 12 11 11 11 11 11 11 11 12 12 12 12 12 13 13 13 13 13 13 14 14 14 14 14 14 14 14 14 14 14 14
18 18 19 19 19 18 18 17 17 16 15 15 15 14 14 13 13 12 12 11 11 11 11 11 11 11 11 12 12 12 12 12 13 13 13 13 13 13 13 13 13 14 14 14 14 14 14 14 14
Wind_Speed
8 7 5 3 2 7 12 9 7 7 5 5 4 2 2 4 4 4 5 11 13 15 16 16 14 14 13 12 12 11 10 10 10 9 9 8 8 7 7 6 6 5 4 4 4 4 4 4 3
6 6 4 3 4 10 11 8 9 8 6 4 4 3 3 5 6 5 7 10 13 15 15 15 15 14 13 12 11 11 10 10 9 9 8 8 7 7 6 6 5 4 4 3 3 3 3 3 3
7 5 3 1 8 10 10 8 8 7 5 4 4 5 4 5 4 5 8 12 13 13 13 14 14 13 12 11 11 10 10 10 9 9 8 8 7 6 6 6 5 4 4 3 3 3 3 3 3
4 3 2 4 10 8 6 6 5 5 6 7 5 6 6 6 4 6 11 12 13 12 12 14 13 12 12 11 10 10 10 9 9 9 8 8 7 6 5 5 5 4 4 3 3 3 3 3 3
3 2 3 6 8 7 6 6 5 7 8 9 8 8 7 7 7 10 11 11 11 11 10 13 12 11 11 10 10 10 9 9 9 8 8 8 7 6 5 5 4 4 4 3 3 3 3 3 3
2 2 4 6 7 6 6 6 6 9 10 9 8 7 7 7 7 8 8 8 9 9 9 11 12 10 10 9 9 9 9 10 10 9 8 7 7 6 6 5 4 4 3 3 3 3 3 2 3
1 2 4 6 5 6 7 6 9 9 11 11 9 7 6 8 6 6 6 6 6 7 7 7 10 11 11 9 9 9 10 10 10 9 9 8 7 7 6 5 5 4 4 4 3 3 3 2 2
1 2 5 4 5 6 7 7 8 11 10 10 10 8 5 6 6 6 5 4 4 5 6 6 7 8 9 10 11 10 11 11 11 10 10 9 8 8 7 8 7 5 5 4 3 3 3 3 2
2 2 4 3 3 5 7 7 8 8 11 14 13 12 7 7 6 5 4 2 2 2 4 5 6 6 7 7 8 11 11 12 11 11 11 11 11 10 10 8 7 6 5 4 4 3 3 4 5
1 3 5 5 6 8 12 11 7 7 13 13 15 14 10 7 6 5 4 3 2 3 4 5 6 7 8 7 7 9 10 11 12 11 11 11 10 8 7 9 7 7 6 6 5 4 6 9 7
5 6 7 8 9 9 10 15 15 7 11 12 13 12 10 10 10 9 9 8 7 6 6 6 7 8 9 7 8 7 7 8 10 11 11 10 8 8 8 7 10 10 10 9 9 9 9 8 5
7 10 8 6 7 8 9 8 12 18 10 11 11 12 13 13 13 12 11 10 10 9 9 8 8 8 9 9 8 8 8 8 9 10 12 10 7 7 7 7 7 7 7 6 7 7 7 7 8
9 9 14 17 20 18 18 16 13 15 12 11 12 14 14 14 12 11 10 11 11 10 10 10 9 8 9 9 8 9 9 9 11 10 10 11 8 8 8 7 7 8 7 7 7 8 7 7 7
10 14 13 11 12 12 17 15 9 12 11 12 13 14 14 14 13 12 12 12 11 11 11 10 10 9 8 8 9 9 10 10 11 10 11 12 10 9 8 8 7 8 8 7 8 8 7 7 7
13 13 12 8 6 5 5 13 11 11 9 12 13 13 13 13 13 13 13 12 11 11 11 10 9 9 9 9 9 9 10 10 9 10 12 12 12 11 9 8 7 8 9 9 8 8 7 7 7
6 6 4 8 5 3 1 7 11 10 10 12 12 12 12 12 13 13 13 12 12 11 11 10 9 9 9 9 8 7 9 9 9 10 11 12 12 13 10 8 8 8 8 7 7 7 7 8 8
5 3 3 5 9 4 6 7 8 9 10 12 12 12 13 13 15 14 14 13 12 12 11 11 10 10 9 9 8 8 7 8 9 9 9 10 12 13 11 8 8 10 7 7 7 8 8 8 7
1 2 2 5 7 9 11 10 8 10 11 12 13 13 14 15 15 15 15 14 13 12 11 11 10 10 10 8 7 6 6 7 8 8 9 10 10 12 11 8 10 10 7 7 8 8 7 7 6
2 1 2 5 4 6 10 10 8 10 12 14 14 15 15 16 16 15 15 14 14 13 12 12 11 10 9 7 6 6 6 6 7 7 10 11 11 12 11 8 9 8 8 9 9 8 9 8 8
1 1 3 6 5 4 7 8 7 9 12 13 14 15 16 17 18 17 17 15 15 14 14 13 12 11 10 8 7 6 7 7 7 7 9 11 11 11 10 9 8 8 7 8 9 8 7 7 7
3 2 2 4 5 5 5 4 5 6 9 12 13 14 16 17 18 18 18 17 16 15 15 13 13 12 10 9 7 7 6 6 6 7 7 8 11 11 10 9 8 9 9 8 9 9 9 7 8
1 3 1 5 7 3 4 3 5 6 9 13 15 16 17 17 17 17 17 17 17 15 14 14 13 12 11 9 8 8 7 7 7 6 6 7 8 9 11 11 10 10 9 9 9 9 8 8 7
3 2 3 6 5 4 1 5 3 7 12 15 16 16 17 17 17 17 17 17 16 15 13 13 13 12 11 9 8 7 6 6 6 6 6 6 6 7 9 10 10 10 9 9 9 8 9 8 8
0 4 5 5 5 4 2 4 3 8 12 15 15 16 16 17 17 17 17 17 16 15 14 13 12 12 11 9 8 6 6 6 5 5 4 4 3 4 7 8 9 9 8 9 9 9 10 9 9
2 5 3 5 4 1 2 1 3 7 10 12 14 15 15 15 16 17 17 17 16 16 15 14 13 12 12 10 9 7 6 5 4 4 3 2 2 2 4 6 7 7 7 8 9 9 10 10 9
3 4 4 4 2 2 1 1 3 5 8 9 11 12 14 15 15 16 16 15 15 15 15 14 14 13 12 11 10 8 7 4 4 3 2 1 0 0 1 3 4 5 6 7 8 7 8 8 8
1 2 3 2 1 2 2 2 3 3 7 10 11 13 14 14 15 15 15 15 15 14 14 14 14 13 13 12 11 10 8 6 5 5 4 3 2 1 2 2 2 4 5 5 6 6 7 7 7
4 2 3 3 3 2 2 1 3 6 9 10 12 13 14 14 14 14 14 14 13 13 13 13 13 13 12 12 11 9 10 9 8 7 7 6 5 3 2 2 2 3 3 4 4 4 5 6 6
1 1 1 0 3 3 1 2 3 5 7 9 10 11 12 13 12 12 12 13 12 13 12 12 12 13 12 12 11 11 11 11 10 9 9 8 7 6 4 4 3 3 3 2 2 2 3 4 4
3 3 2 2 1 1 1 2 3 3 5 6 8 9 10 11 11 11 11 12 12 13 13 13 13 13 12 12 11 11 11 11 11 11 11 10 9 8 7 5 5 5 4 3 2 2 3 3 4
Wind_Direction
191 183 190 216 200 87 73 63 52 50 51 54 66 69 25 26 1 49 110 149 146 149 149 152 153 150 147 144 144 143 140 139 138 139 142 143 146 149 151 154 151 149 148 148 150 146 146 140 140
168 167 209 238 92 84 72 55 50 44 63 71 65 57 65 57 41 83 132 144 150 150 152 153 151 153 151 150 149 147 145 143 140 141 142 144 147 149 151 151 151 152 151 146 146 146 142 143 135
166 203 258 91 71 68 69 52 52 61 52 36 55 48 43 41 61 108 133 148 152 151 153 146 154 156 155 153 152 150 150 149 149 149 149 149 148 150 152 155 157 159 156 148 145 148 148 143 133
186 219 227 92 81 65 51 50 51 65 57 43 49 68 68 45 56 112 135 149 150 153 154 149 159 159 159 159 161 159 159 159 158 156 155 155 155 158 160 159 156 153 150 147 140 143 142 135 129
232 245 125 99 81 66 51 39 44 49 52 44 47 70 72 53 78 117 138 149 155 157 158 155 161 163 165 167 169 170 170 170 167 165 161 162 165 165 168 162 154 150 148 146 140 138 135 133 132
233 214 121 99 86 72 55 45 51 56 57 46 43 65 70 77 94 118 135 152 158 158 163 159 163 173 177 180 183 184 181 179 175 173 172 174 175 173 172 168 160 157 151 150 142 140 137 136 141
266 122 110 109 100 72 38 46 47 53 51 35 20 61 88 85 91 115 128 140 151 162 170 178 176 182 189 195 198 198 195 191 188 185 186 187 186 184 184 182 178 173 165 157 148 139 132 128 138
319 138 124 109 104 65 32 67 51 43 51 34 22 37 65 87 103 110 111 129 157 178 188 196 201 202 201 200 201 208 209 205 200 196 196 197 197 195 194 199 180 181 179 170 157 147 141 133 133
264 158 114 88 89 66 39 73 58 58 62 49 40 35 46 86 99 98 96 112 161 218 228 228 227 226 231 230 205 210 215 215 211 206 202 207 213 204 197 195 162 190 192 186 180 175 168 178 164
25 105 81 73 87 93 63 55 38 59 46 29 24 30 47 69 69 60 40 17 343 296 271 260 255 246 240 240 237 233 225 217 220 219 209 215 218 216 221 142 181 205 204 199 197 197 202 223 194
61 78 91 88 95 99 89 63 42 57 39 14 9 21 38 44 41 33 24 12 357 338 320 297 280 267 258 246 245 245 245 238 233 229 223 224 223 214 219 200 190 202 205 207 183 206 213 214 207
88 63 71 75 79 77 80 83 60 48 35 23 35 40 42 40 36 28 21 14 5 359 347 326 301 281 267 255 248 245 245 242 239 235 230 223 225 229 221 219 215 209 207 212 215 222 210 217 210
100 94 81 85 85 85 86 83 75 44 32 35 45 46 42 38 33 28 21 13 8 2 352 340 325 302 284 267 255 250 246 247 245 240 239 230 227 230 225 225 216 222 218 207 217 225 214 220 217
107 109 100 91 93 86 81 71 58 27 26 38 42 42 38 34 27 21 15 9 2 355 348 343 336 324 301 279 261 257 253 248 252 245 239 237 231 233 230 233 222 224 222 221 220 219 213 218 215
128 119 100 64 90 120 98 58 38 18 29 39 37 36 32 29 24 18 9 1 355 348 344 343 337 334 322 302 279 267 260 256 251 247 244 243 237 236 231 233 226 221 218 218 221 218 218 220 215
174 177 129 55 34 35 161 67 33 20 31 37 31 27 22 20 16 11 2 355 349 343 340 338 336 332 326 316 301 284 267 261 256 253 247 245 242 238 236 232 231 225 219 217 212 224 216 217 220
204 221 131 83 34 58 87 84 43 29 33 35 27 20 14 11 8 4 358 352 345 339 334 333 332 328 322 315 302 289 275 263 257 253 250 245 245 241 234 233 234 224 216 219 218 216 222 222 223
258 265 106 88 61 83 93 91 59 40 35 30 22 15 11 7 2 357 353 349 343 339 334 330 328 325 320 311 300 288 274 264 255 246 245 242 242 244 241 235 235 232 218 219 223 219 225 234 225
16 301 108 101 110 87 97 90 64 42 33 24 16 9 6 1 356 357 352 348 344 342 337 332 327 325 323 317 308 297 282 270 257 244 239 236 233 234 234 235 235 229 223 220 222 223 222 225 225
63 200 128 118 117 125 119 95 72 46 34 23 12 6 1 355 352 354 351 349 346 342 338 332 328 324 321 314 305 290 286 277 268 255 241 236 233 228 227 223 226 223 222 221 221 217 223 222 221
56 4 156 153 139 152 177 151 68 45 30 22 15 6 1 356 350 348 348 347 345 344 339 334 329 323 319 315 305 295 281 269 261 255 245 236 231 227 224 221 219 219 215 215 215 214 219 221 222
106 37 234 190 203 185 247 246 71 16 16 14 9 3 360 356 352 350 348 347 345 342 339 336 333 330 326 318 307 299 287 278 269 264 253 241 234 226 219 216 212 213 211 212 212 212 218 219 219
21 345 230 207 217 201 280 278 70 15 6 3 1 359 358 356 355 353 352 349 347 346 345 342 340 337 334 328 319 306 292 285 281 273 263 248 234 225 218 214 211 208 207 208 207 208 217 219 219
113 150 140 177 213 222 359 303 36 17 357 351 354 358 359 358 357 356 354 352 352 353 353 350 349 348 344 340 336 328 311 299 292 282 266 254 231 219 215 213 210 207 203 203 206 206 214 219 219
270 249 230 212 218 138 47 315 43 14 359 352 352 356 358 359 359 359 357 356 357 356 357 356 358 358 357 355 353 349 341 328 314 301 280 263 232 216 215 213 209 205 201 201 201 202 209 214 216
10 312 307 304 309 130 169 8 62 20 1 360 2 2 1 2 3 1 0 1 1 359 360 1 3 5 4 4 1 359 359 355 345 339 333 321 320 193 188 198 199 199 200 199 196 194 200 207 209
322 29 345 311 302 226 143 125 135 19 10 8 7 5 3 1 1 1 4 6 6 5 3 3 6 8 8 8 6 8 11 9 9 13 18 24 34 62 106 140 168 181 189 193 195 198 198 203 207
27 3 260 278 282 273 169 190 4 3 2 2 3 4 2 1 1 2 4 6 7 6 4 6 11 11 12 12 15 18 21 19 20 26 30 30 36 47 88 103 129 147 156 173 188 195 199 203 203
32 91 37 24 324 305 286 91 37 356 352 351 357 1 1 1 2 2 2 5 8 9 11 11 12 15 15 15 18 24 26 26 29 30 29 31 35 38 55 69 81 88 101 125 148 169 186 193 190
28 22 305 304 70 334 310 96 84 349 339 345 353 359 3 4 6 7 7 9 11 12 13 15 16 18 17 17 24 28 29 30 33 32 30 34 41 43 50 61 72 76 74 81 98 124 152 162 176
Height
1532 1531 1532 1534 1531 1529 1535 1533 1527 1528 1528 1531 1532 1532 1531 1531 1534 1542 1543 1543 1546 1548 1550 1551 1554 1556 1557 1558 1559 1561 1561 1562 1563 1563 1564 1565 1565 1566 1566 1566 1567 1567 1567 1567 1568 1568 1568 1568 1567
1533 1532 1534 1534 1528 1538 1540 1532 1530 1530 1533 1534 1534 1534 1534 1537 1540 1542 1542 1544 1547 1550 1552 1553 1555 1556 1558 1559 1560 1561 1562 1563 1563 1564 1564 1565 1565 1566 1566 1567 1567 1567 1567 1568 1568 1568 1568 1568 1568
1533 1533 1536 1530 1531 1538 1540 1533 1532 1534 1535 1535 1535 1537 1538 1541 1543 1544 1545 1546 1549 1552 1554 1554 1556 1557 1559 1560 1561 1562 1563 1563 1564 1564 1565 1565 1565 1566 1566 1567 1567 1567 1567 1568 1568 1568 1568 1568 1568
1535 1536 1535 1531 1538 1536 1535 1533 1534 1535 1536 1537 1536 1538 1542 1546 1546 1547 1547 1549 1552 1553 1555 1555 1557 1558 1560 1561 1562 1562 1563 1564 1564 1564 1565 1565 1566 1566 1566 1567 1567 1567 1567 1568 1568 1568 1568 1568 1568
1536 1536 1532 1536 1538 1536 1535 1536 1536 1535 1537 1539 1538 1540 1545 1548 1547 1548 1550 1552 1554 1555 1556 1557 1557 1559 1560 1561 1562 1563 1563 1564 1564 1565 1565 1565 1566 1566 1566 1567 1567 1567 1567 1567 1567 1568 1568 1568 1568
1537 1533 1536 1542 1541 1538 1538 1539 1539 1538 1540 1542 1542 1542 1548 1550 1550 1551 1552 1554 1556 1557 1558 1558 1558 1559 1560 1561 1562 1563 1563 1564 1564 1564 1565 1565 1565 1566 1566 1566 1566 1566 1567 1567 1567 1567 1567 1568 1568
1537 1533 1538 1541 1542 1541 1542 1542 1542 1542 1544 1546 1546 1545 1550 1553 1553 1553 1554 1555 1557 1558 1559 1560 1560 1560 1560 1561 1562 1562 1563 1563 1564 1564 1564 1564 1565 1565 1565 1565 1566 1566 1566 1566 1566 1567 1567 1568 1568
1537 1535 1540 1541 1544 1546 1546 1546 1548 1548 1550 1552 1550 1549 1552 1555 1555 1555 1556 1557 1558 1559 1560 1560 1561 1561 1562 1561 1561 1562 1562 1562 1563 1563 1563 1564 1564 1564 1564 1565 1565 1565 1565 1566 1566 1566 1567 1567 1568
1537 1537 1542 1544 1545 1549 1549 1548 1551 1554 1554 1555 1556 1556 1557 1556 1556 1557 1557 1558 1558 1559 1560 1561 1561 1561 1561 1561 1561 1560 1560 1561 1561 1561 1562 1562 1563 1564 1564 1564 1563 1564 1564 1565 1565 1566 1566 1567 1568
1537 1539 1545 1546 1546 1551 1553 1553 1555 1556 1557 1558 1559 1559 1558 1558 1558 1558 1558 1558 1559 1559 1559 1560 1560 1560 1560 1560 1560 1559 1560 1559 1559 1560 1561 1561 1562 1563 1564 1562 1562 1563 1563 1564 1564 1565 1566 1567 1569
1539 1543 1546 1548 1550 1552 1554 1559 1560 1559 1563 1566 1564 1562 1561 1560 1559 1559 1559 1558 1558 1558 1558 1558 1558 1558 1558 1558 1558 1558 1558 1557 1558 1558 1559 1560 1561 1561 1561 1562 1561 1562 1562 1564 1564 1565 1567 1569 1570
1544 1549 1549 1552 1553 1555 1556 1560 1565 1568 1572 1570 1567 1565 1563 1561 1560 1559 1558 1558 1557 1556 1556 1556 1556 1555 1555 1555 1555 1555 1555 1555 1555 1556 1557 1557 1558 1559 1560 1561 1562 1562 1562 1563 1564 1566 1567 1568 1569
1545 1553 1556 1558 1558 1560 1561 1565 1569 1573 1573 1572 1569 1566 1564 1563 1562 1561 1559 1558 1556 1555 1554 1553 1552 1552 1552 1552 1552 1552 1551 1552 1552 1553 1553 1554 1555 1556 1558 1559 1559 1560 1561 1562 1562 1564 1566 1567 1568
1549 1553 1557 1560 1561 1564 1565 1569 1571 1576 1575 1573 1570 1568 1567 1565 1563 1561 1559 1557 1555 1554 1552 1550 1549 1549 1548 1548 1548 1548 1548 1548 1548 1549 1550 1551 1552 1553 1554 1556 1557 1558 1559 1560 1561 1562 1564 1565 1566
1550 1553 1558 1562 1562 1564 1564 1572 1578 1579 1577 1574 1572 1570 1568 1566 1564 1562 1560 1557 1555 1553 1550 1548 1547 1545 1544 1543 1543 1543 1543 1544 1544 1545 1546 1548 1549 1550 1551 1553 1554 1555 1556 1558 1559 1561 1562 1563 1564
1547 1548 1555 1565 1564 1565 1564 1578 1582 1580 1578 1575 1573 1571 1569 1567 1565 1562 1559 1557 1554 1551 1548 1546 1544 1542 1541 1539 1538 1538 1538 1539 1540 1541 1542 1543 1544 1546 1547 1549 1551 1552 1554 1555 1556 1558 1559 1561 1562
1546 1548 1555 1564 1567 1566 1567 1580 1583 1581 1579 1576 1574 1572 1569 1567 1565 1562 1558 1555 1552 1549 1546 1543 1541 1539 1537 1536 1534 1534 1533 1534 1534 1535 1537 1538 1540 1541 1543 1545 1547 1549 1551 1552 1554 1556 1557 1559 1560
1551 1550 1556 1565 1571 1569 1573 1581 1583 1582 1580 1577 1575 1572 1570 1567 1564 1561 1557 1554 1551 1547 1544 1541 1538 1536 1534 1532 1530 1530 1529 1529 1529 1530 1531 1533 1535 1536 1538 1540 1542 1545 1547 1548 1550 1552 1554 1556 1558
1551 1553 1559 1569 1573 1573 1576 1580 1582 1582 1579 1577 1575 1572 1570 1567 1564 1560 1556 1552 1549 1545 1542 1538 1536 1533 1530 1528 1527 1525 1525 1524 1525 1525 1526 1528 1530 1531 1533 1535 1538 1540 1542 1544 1547 1549 1550 1552 1555
1553 1556 1563 1572 1574 1573 1577 1579 1580 1581 1580 1579 1576 1573 1570 1566 1562 1558 1555 1551 1547 1543 1539 1536 1533 1530 1527 1525 1523 1521 1520 1520 1520 1521 1521 1522 1524 1526 1527 1530 1532 1535 1538 1540 1542 1545 1547 1549 1551
1558 1559 1563 1568 1575 1574 1574 1577 1577 1579 1579 1579 1577 1574 1571 1567 1562 1558 1553 1549 1545 1541 1536 1533 1529 1526 1524 1521 1519 1517 1516 1515 1515 1515 1516 1517 1519 1520 1522 1524 1527 1530 1533 1535 1537 1540 1543 1545 1547
1562 1566 1566 1567 1568 1569 1573 1569 1576 1576 1577 1577 1576 1573 1570 1567 1562 1558 1553 1548 1543 1539 1534 1531 1527 1523 1520 1518 1516 1514 1512 1511 1511 1511 1511 1512 1514 1515 1517 1519 1521 1524 1526 1529 1532 1535 1537 1540 1542
1565 1567 1565 1565 1564 1567 1570 1567 1573 1575 1576 1577 1576 1574 1571 1567 1563 1558 1553 1547 1542 1537 1533 1528 1525 1521 1518 1515 1513 1510 1509 1508 1507 1507 1507 1508 1509 1510 1512 1514 1516 1519 1521 1524 1527 1529 1532 1535 1537
1568 1567 1566 1564 1562 1568 1574 1572 1577 1579 1581 1579 1577 1574 1571 1567 1563 1558 1553 1547 1541 1536 1532 1527 1523 1520 1516 1513 1510 1508 1506 1505 1505 1504 1504 1505 1506 1507 1508 1510 1512 1514 1516 1519 1522 1525 1527 1530 1532
1564 1563 1562 1563 1564 1570 1576 1576 1583 1582 1582 1581 1578 1575 1572 1568 1563 1558 1552 1546 1541 1536 1532 1527 1523 1519 1515 1512 1509 1507 1505 1504 1503 1502 1502 1502 1503 1504 1505 1507 1509 1511 1513 1515 1518 1520 1523 1526 1528
1567 1563 1564 1564 1563 1570 1577 1578 1582 1583 1583 1581 1579 1576 1572 1568 1564 1559 1553 1548 1542 1537 1533 1528 1524 1520 1516 1512 1509 1506 1504 1503 1502 1502 1502 1502 1502 1502 1503 1505 1506 1508 1510 1512 1514 1517 1519 1522 1524
1566 1565 1567 1564 1566 1569 1572 1578 1579 1581 1581 1580 1579 1576 1573 1569 1565 1560 1555 1550 1544 1539 1534 1530 1526 1521 1517 1513 1510 1507 1505 1504 1503 1502 1502 1502 1502 1502 1503 1503 1504 1506 1507 1509 1511 1514 1516 1517 1519
1571 1570 1566 1565 1569 1568 1574 1577 1579 1580 1580 1580 1578 1576 1573 1570 1566 1562 1557 1552 1547 1542 1537 1532 1528 1524 1520 1516 1513 1509 1507 1506 1505 1503 1502 1502 1502 1502 1503 1503 1504 1505 1506 1508 1509 1511 1513 1515 1516
1572 1572 1570 1569 1569 1570 1574 1580 1580 1582 1582 1581 1579 1577 1574 1571 1567 1563 1559 1554 1549 1545 1540 1535 1531 1526 1522 1519 1516 1513 1510 1508 1507 1505 1504 1504 1503 1503 1503 1504 1504 1505 1506 1507 1508 1510 1511 1513 1515
1575 1575 1572 1570 1573 1574 1574 1583 1581 1582 1582 1581 1579 1577 1575 1572 1568 1565 1561 1556 1552 1547 1543 1538 1534 1530 1526 1523 1519 1516 1514 1512 1510 1508 1507 1506 1505 1505 1505 1505 1506 1506 1507 1507 1508 1509 1510 1512 1513